Theta_e
303 303 303 303 302 301 300 300 298 297 297 298 298 298 301 302 304 304 306 308 309 309 312 318 319 317 316 314 315 317 316 316 316 313 314 315 313 314 315 315 316 316 317 319 321 322 322 324 325 325 327 328 326 324 323 323 323 323 323 322 324 330 330 322 319 323 326 326 327 327 326 325 324 324 326 326 325 326 323 328 336 330 325 330 327 323 340
303 303 303 303 303 301 300 300 299 298 298 298 298 300 302 302 303 305 309 313 313 311 312 317 320 319 317 316 317 317 317 318 318 317 316 316 315 315 316 316 316 317 319 320 322 323 322 324 325 324 325 326 325 324 325 324 324 324 324 325 326 325 326 323 319 320 320 321 323 322 323 325 326 328 328 325 327 328 327 334 333 326 328 331 325 325 343
303 303 303 303 303 302 300 301 300 298 298 298 299 302 303 304 307 308 311 315 314 312 312 314 318 320 318 318 318 317 317 318 318 319 318 317 316 317 318 318 317 318 319 319 320 322 322 323 325 325 325 326 326 326 326 326 326 324 324 327 325 325 331 325 318 319 320 319 320 322 326 329 329 332 328 325 328 326 326 331 326 324 331 332 329 332 342
302 303 303 303 303 302 301 302 301 299 298 299 300 303 304 307 311 312 312 314 313 312 312 311 313 317 317 319 320 317 317 317 317 317 318 318 318 317 318 318 317 318 318 317 318 319 320 322 326 328 328 328 329 328 326 327 327 326 330 331 326 328 334 329 322 322 321 322 328 335 337 329 324 327 327 326 327 325 329 331 325 329 334 332 341 344 335
303 302 302 303 303 302 302 302 301 299 298 299 302 305 306 307 312 314 313 315 314 313 312 311 312 314 315 318 320 316 316 317 317 317 318 318 318 317 318 318 318 319 319 318 319 319 321 322 324 327 326 327 330 328 328 329 328 332 338 335 329 329 328 328 329 326 323 325 332 336 335 327 323 327 326 327 328 326 327 326 327 336 331 326 349 356 332
302 302 302 302 302 302 302 302 301 299 298 299 304 308 308 309 313 313 312 314 315 314 313 312 312 313 315 318 318 316 315 316 317 319 318 317 316 318 321 320 318 319 319 319 320 321 323 324 323 325 327 330 334 332 331 331 329 334 339 335 333 329 323 325 328 326 325 325 326 331 333 328 326 328 326 326 328 325 325 325 330 338 328 323 348 359 338
302 302 302 302 302 302 302 302 301 299 298 300 304 308 308 309 311 311 311 312 312 312 312 312 314 314 315 318 320 318 317 317 317 317 316 316 316 317 322 323 321 321 321 321 322 322 324 324 323 327 330 333 337 335 333 331 329 331 335 336 334 328 327 331 326 322 325 325 323 327 328 327 327 328 327 327 327 325 325 326 331 334 330 329 345 354 344
303 303 303 303 302 302 302 301 300 300 299 299 302 305 306 306 307 308 309 310 310 311 311 312 314 313 313 319 320 316 316 318 316 314 314 317 317 317 321 323 322 322 323 324 324 322 324 324 325 331 332 332 339 341 336 333 331 329 332 337 333 326 334 340 329 322 324 323 324 326 323 325 325 323 327 328 325 325 324 324 330 331 330 333 339 344 344
303 303 303 303 303 303 302 301 300 300 300 300 300 302 304 304 305 306 307 309 310 312 312 312 313 313 315 318 316 312 314 315 313 313 314 315 316 317 320 322 322 322 324 326 327 325 326 325 325 329 330 329 335 339 334 331 330 330 332 335 334 330 334 338 329 322 322 323 325 324 323 324 322 320 326 325 323 326 324 326 335 333 331 336 337 335 337
303 303 303 302 303 303 302 302 301 300 300 301 301 301 301 303 304 306 307 309 310 311 311 310 311 313 315 314 311 310 312 312 312 315 316 314 314 316 317 318 320 322 324 327 326 323 323 324 323 324 325 325 327 329 329 328 328 331 332 333 338 335 330 333 330 323 322 324 323 323 322 321 319 320 323 322 325 328 325 330 342 339 333 335 333 330 336
303 303 303 302 302 302 302 302 302 301 301 301 301 300 300 302 303 305 306 308 309 309 310 311 311 311 311 311 309 310 310 310 311 314 316 314 314 314 314 315 317 322 325 325 323 321 322 323 322 322 323 324 325 325 327 329 328 329 330 332 339 337 330 333 333 323 320 324 326 324 320 317 321 329 330 327 325 324 325 335 344 343 341 342 339 338 347
304 303 302 302 302 302 302 302 301 301 301 301 302 301 300 301 302 304 306 308 309 308 309 310 310 309 309 310 310 310 310 310 311 312 313 313 312 312 312 314 319 325 325 321 321 324 325 324 325 326 325 327 330 328 328 331 330 328 328 329 334 336 334 335 333 325 324 328 326 321 320 325 335 343 342 334 326 326 337 343 343 342 344 349 351 349 351
304 303 302 302 302 302 302 302 301 301 301 302 302 301 301 300 301 303 306 307 308 308 309 309 309 309 310 309 309 310 310 311 311 311 311 311 311 311 312 316 322 324 320 318 319 323 329 333 332 330 333 340 342 336 330 329 328 328 329 330 331 334 337 337 334 330 328 326 322 321 327 337 341 340 341 338 333 334 340 339 337 340 340 345 353 352 347
303 303 303 302 302 301 302 303 302 301 301 301 302 302 301 301 301 303 305 306 307 308 309 309 309 309 309 309 309 310 310 310 310 310 310 310 311 312 313 317 319 317 315 317 319 323 333 341 336 329 332 340 340 337 334 330 329 332 334 332 331 333 340 339 331 331 333 328 323 326 331 333 335 337 339 339 336 337 340 339 337 338 336 339 348 347 342
302 302 303 302 302 301 302 302 302 302 301 301 302 302 302 301 301 302 304 306 306 307 308 308 309 309 310 310 310 309 309 310 310 309 310 311 312 313 315 315 314 315 318 318 322 330 336 337 334 330 330 331 331 337 340 336 334 336 335 335 334 333 338 338 328 330 339 338 330 329 328 330 339 344 338 334 333 333 340 346 339 336 336 336 340 343 343
302 302 302 302 302 302 302 302 302 302 302 301 302 302 302 302 301 302 304 306 306 307 308 308 309 310 309 309 309 309 309 310 310 310 311 312 313 313 313 312 313 319 323 322 327 336 336 334 335 334 333 332 330 336 342 342 341 339 335 338 342 340 339 341 337 335 338 337 334 334 333 335 344 345 335 331 332 331 335 341 337 336 336 332 334 344 345
302 302 302 302 302 302 302 302 302 302 302 302 302 302 302 302 302 302 303 305 306 307 308 307 308 309 308 308 309 309 310 309 309 311 313 313 311 311 311 311 315 322 325 327 333 335 333 336 337 335 338 338 331 332 339 342 341 340 339 340 348 353 350 343 341 340 340 340 340 338 338 337 338 337 332 330 330 329 330 334 336 337 334 329 332 340 339
302 302 302 302 302 302 302 302 302 302 302 303 302 302 302 302 301 302 303 304 305 306 306 307 308 308 308 308 309 310 310 309 309 310 311 311 312 312 309 309 315 322 324 330 336 333 330 335 335 334 339 338 330 332 338 338 337 342 347 345 345 353 354 343 338 338 339 343 342 336 337 339 335 331 330 328 330 330 329 332 335 334 331 330 332 333 332
302 302 302 302 302 302 302 302 302 302 303 303 302 302 302 302 301 302 302 303 304 305 306 307 308 308 308 309 309 309 309 308 309 309 310 311 312 310 308 310 317 322 324 329 333 332 333 337 336 334 337 337 332 334 337 337 338 342 345 341 338 343 346 344 344 340 336 340 342 335 334 336 331 328 329 330 335 338 333 332 333 331 331 333 333 333 334
302 302 302 302 302 302 302 302 302 302 302 302 302 302 302 302 301 301 302 303 304 305 305 306 307 307 307 307 307 308 307 307 309 309 309 311 309 307 312 320 320 319 324 329 331 332 334 337 335 332 335 338 336 335 336 339 341 343 344 343 341 343 344 343 343 341 338 341 343 337 335 333 329 331 338 341 341 339 332 329 330 330 330 331 330 331 333
302 302 302 302 302 302 302 302 302 302 302 302 302 302 302 302 301 301 302 302 304 305 305 306 306 306 307 308 307 308 308 308 309 308 308 309 308 306 313 318 315 316 323 327 328 330 330 331 331 330 332 337 336 334 337 340 339 339 344 346 345 345 346 344 341 338 339 341 339 335 333 332 329 332 339 338 334 332 330 329 329 328 329 329 328 329 329
302 302 302 302 302 302 302 302 302 302 302 302 302 302 302 302 301 301 302 302 302 303 304 304 305 305 306 306 306 307 307 306 306 307 307 308 308 307 309 310 308 313 321 323 324 327 328 328 330 330 332 335 335 334 337 339 338 337 339 343 343 342 343 344 341 337 335 336 335 332 331 329 328 330 331 330 329 330 329 329 328 328 328 328 328 328 327
302 302 302 302 302 302 302 302 302 302 302 302 302 302 302 302 302 302 302 301 302 302 302 302 303 303 303 303 303 304 305 305 306 307 307 308 308 307 308 308 308 313 319 319 319 323 326 328 328 328 332 335 333 334 338 340 341 340 338 340 340 336 336 339 340 338 336 334 332 331 329 327 327 328 329 328 329 329 328 327 327 327 326 326 327 327 328
302 301 301 302 302 302 302 302 302 302 302 302 302 302 302 302 302 302 302 302 302 303 303 303 304 304 303 303 304 305 306 306 307 308 309 309 308 307 308 309 310 312 315 315 315 317 322 325 326 328 334 334 331 334 339 337 336 338 339 340 339 336 335 336 336 338 340 340 336 333 330 327 326 327 327 327 327 327 326 326 326 325 326 326 326 327 328
301 301 301 301 302 302 302 302 302 302 302 302 303 303 302 302 302 302 302 302 302 303 303 304 304 304 304 305 305 306 306 306 308 309 310 310 309 309 310 310 310 311 311 311 312 315 320 327 329 329 332 332 329 332 336 333 332 336 340 340 338 336 336 337 336 337 338 338 335 331 327 326 325 326 326 327 327 326 325 324 324 324 325 325 325 326 326
301 301 301 301 302 302 302 302 302 302 302 302 302 302 302 302 302 302 302 302 301 302 303 303 304 305 305 306 305 305 306 308 309 309 309 310 310 311 311 310 311 311 311 310 311 312 317 325 330 331 332 331 329 330 334 333 332 336 338 334 331 333 337 339 338 336 335 334 332 329 329 328 327 326 326 327 326 326 325 324 324 324 324 324 324 325 324
301 301 301 302 302 302 302 302 302 302 302 302 302 302 302 302 302 302 302 302 301 302 304 304 305 305 304 305 305 307 308 309 309 310 310 311 312 312 312 312 312 312 311 310 310 312 316 322 327 330 331 330 328 329 331 331 332 336 336 330 328 333 338 337 334 333 333 333 331 330 331 333 329 326 326 326 324 324 324 324 324 324 323 324 324 323 323
301 301 301 302 302 302 302 302 302 302 302 302 302 301 302 302 302 302 302 301 301 302 303 304 304 305 305 306 307 309 309 310 311 312 312 312 312 313 313 313 313 313 312 310 310 314 319 321 324 326 327 327 330 332 330 329 333 334 331 326 326 329 332 334 335 335 335 334 331 328 328 329 328 325 325 324 324 324 324 323 324 323 323 323 323 324 324
301 301 301 302 302 302 302 302 302 302 302 302 302 301 301 302 301 301 301 301 301 301 302 303 305 306 307 307 307 309 310 310 312 312 312 312 312 312 312 312 312 312 310 309 310 314 319 319 318 321 323 325 331 335 333 333 336 333 325 323 324 325 327 330 333 334 332 331 328 326 325 326 325 324 324 324 324 324 325 324 324 324 323 323 323 322 322
302 301 301 302 302 302 302 301 301 302 302 302 302 301 301 303 304 302 302 303 303 303 303 305 306 306 306 307 308 309 310 311 312 312 312 312 311 310 310 310 309 309 309 309 310 312 316 316 315 318 320 322 329 334 333 333 333 328 322 320 323 325 326 326 326 327 327 326 325 325 325 325 325 325 324 324 324 325 325 323 322 322 322 322 321 321 321
301 301 302 302 302 302 301 301 301 301 302 302 301 301 302 305 306 304 303 305 305 303 303 305 306 307 307 307 308 310 311 312 312 313 313 312 311 310 309 308 308 309 309 309 310 311 314 317 317 318 318 320 327 332 332 331 330 325 320 319 321 323 323 322 323 323 323 323 322 323 323 323 323 324 323 323 323 322 322 321 320 320 321 320 320 320 320
301 302 302 302 302 302 301 301 301 301 301 301 301 301 302 303 305 305 305 306 305 303 303 305 306 307 308 309 309 310 312 313 314 313 313 312 311 310 309 308 309 310 310 310 311 312 313 316 317 318 318 318 323 327 326 325 324 321 318 318 320 322 321 321 322 322 322 323 322 322 321 321 321 321 321 320 320 320 320 320 319 319 319 319 319 319 319
302 302 301 301 301 301 301 301 301 301 301 301 300 301 301 303 304 305 305 305 304 303 304 305 306 307 308 308 309 312 313 313 314 313 312 312 311 309 309 309 310 310 311 312 312 313 314 314 315 318 319 319 321 323 323 320 318 317 317 317 318 320 321 321 321 321 323 324 324 323 322 320 319 320 320 319 319 319 319 319 319 319 319 319 319 319 319
302 301 301 301 301 300 300 300 300 300 300 300 300 301 302 303 305 305 305 305 304 304 305 305 306 307 308 309 312 314 313 313 314 313 312 312 311 310 311 311 310 311 313 313 312 313 314 315 316 319 321 319 318 320 320 318 316 316 316 316 317 318 318 318 317 318 319 320 321 321 320 319 318 317 317 316 316 316 315 315 315 316 316 317 317 318 318
302 301 301 301 300 300 301 301 300 300 300 301 302 303 303 304 305 306 306 306 305 305 306 306 307 308 309 311 315 317 314 312 312 312 312 312 312 312 312 311 310 312 313 311 312 314 318 318 318 320 320 319 318 318 318 317 316 316 316 316 317 317 317 316 315 315 315 316 317 317 317 317 316 315 315 315 315 314 313 313 313 313 313 314 315 315 316
301 301 300 300 301 302 302 302 302 302 303 304 305 305 306 306 306 306 307 306 305 305 306 306 308 309 310 311 313 314 313 313 312 311 312 313 313 312 312 312 312 313 313 313 316 318 320 320 320 320 319 319 319 318 317 317 317 317 316 316 316 316 316 316 315 315 316 316 316 316 316 315 315 315 315 315 314 314 313 313 313 313 313 314 315 315 316
301 300 301 302 303 304 304 304 304 305 305 306 306 306 306 306 306 306 306 306 306 305 305 305 307 307 308 309 310 311 313 315 314 311 312 314 313 312 313 315 317 318 319 320 321 321 320 320 320 320 319 319 319 318 318 318 318 317 317 317 316 316 316 315 315 315 316 316 316 316 316 315 315 315 315 315 315 314 314 314 315 315 315 316 316 316 317
300 301 302 303 304 305 305 305 305 305 306 306 306 306 306 306 306 306 305 305 306 306 305 306 306 305 305 308 310 310 312 315 314 313 313 314 313 313 314 316 319 321 322 322 321 320 321 321 322 321 320 319 319 319 319 318 318 318 317 317 317 317 316 316 316 315 316 316 317 317 316 316 317 317 316 316 316 316 316 316 316 316 316 316 317 317 317
301 302 303 304 304 305 305 305 305 305 305 305 305 305 306 306 307 307 307 306 307 307 307 307 307 305 305 308 310 310 310 313 315 316 316 314 313 313 314 316 318 321 322 321 320 320 323 324 323 322 321 320 320 320 319 319 318 318 318 318 318 317 317 317 317 316 316 317 317 317 317 317 317 317 317 318 317 317 317 317 317 317 317 317 317 317 317
302 303 303 304 304 304 304 305 305 305 305 305 305 305 306 307 308 309 309 308 309 309 309 310 310 308 307 308 310 311 312 313 315 316 318 316 314 315 316 316 319 323 324 323 321 322 324 324 324 323 322 320 320 320 320 319 319 319 318 318 318 318 318 317 317 318 318 317 318 318 318 318 317 317 317 317 317 318 318 317 317 317 317 317 317 317 317
303 303 303 304 305 305 305 306 306 306 306 306 306 307 307 307 308 309 309 310 312 312 310 311 312 311 310 309 309 311 313 313 313 314 317 317 316 318 318 316 318 323 324 321 320 322 325 324 324 323 322 320 320 320 320 320 320 320 319 319 318 318 318 318 318 318 318 317 318 318 317 317 317 317 317 317 317 318 317 317 317 317 316 316 316 316 316
303 303 304 305 305 305 306 306 307 307 307 307 306 307 307 307 307 307 308 310 313 312 310 310 311 312 311 310 310 311 313 313 312 314 318 317 315 319 321 319 319 322 321 318 318 323 325 324 324 323 321 320 321 321 321 321 321 321 320 320 319 318 318 317 317 317 317 317 317 317 316 316 316 316 316 317 317 317 317 317 317 316 316 316 316 316 316
303 304 304 305 305 305 305 306 306 307 308 308 306 305 307 308 308 308 309 310 311 310 310 310 310 311 312 312 311 312 314 314 314 315 317 316 315 317 319 320 320 320 320 319 320 324 325 324 324 323 321 320 321 321 321 321 321 321 321 320 319 318 317 317 317 317 317 316 316 315 315 315 315 316 316 316 316 317 317 316 316 316 315 316 317 317 318
304 304 304 305 304 304 305 306 305 306 308 309 306 305 307 309 309 309 311 312 311 311 311 311 311 312 314 314 313 313 314 315 314 315 317 317 316 316 316 318 319 319 319 320 323 323 323 322 321 320 321 322 321 320 320 320 320 321 321 320 319 318 317 317 317 316 315 315 315 314 315 316 316 315 315 316 316 316 316 316 316 315 315 317 319 319 320
304 304 304 305 305 304 305 307 306 305 307 308 307 306 306 307 309 310 311 311 310 311 312 311 311 313 314 314 313 314 314 314 316 317 318 318 318 316 315 317 319 319 320 322 323 322 322 321 319 318 320 322 320 319 319 320 320 320 320 320 319 318 317 317 316 316 315 315 315 315 315 315 315 314 315 316 316 316 316 316 316 316 316 317 319 319 320
305 304 303 304 305 305 305 306 307 307 306 306 307 307 307 308 308 309 309 310 310 311 311 311 311 312 313 314 314 313 312 314 317 318 317 318 317 315 314 317 318 319 321 323 321 321 321 320 318 318 320 320 319 318 319 319 319 320 320 319 318 318 317 316 316 316 316 316 316 315 315 315 315 315 315 316 316 317 316 316 316 316 316 317 318 319 320
305 303 303 304 306 306 306 306 306 306 305 305 306 307 308 308 307 307 309 310 311 311 311 311 312 312 312 313 313 312 311 314 317 316 315 316 316 314 315 318 319 319 321 321 319 319 319 318 317 319 320 319 318 318 319 319 319 318 318 318 318 318 317 316 316 316 316 316 316 316 316 316 316 316 316 316 316 317 317 316 316 316 316 316 317 319 320
304 304 305 306 306 306 306 306 305 304 304 307 308 309 309 308 307 308 310 310 310 310 310 310 312 314 312 312 313 313 311 312 315 314 313 315 317 315 316 319 319 318 319 320 318 318 319 318 318 320 320 318 318 318 318 318 318 318 317 318 318 317 317 316 315 315 316 316 316 316 316 316 316 316 316 317 317 316 316 316 316 316 316 317 317 319 320
304 305 305 305 305 305 306 306 305 305 306 308 308 308 309 308 307 308 310 310 310 311 310 309 311 313 311 310 313 315 313 311 313 314 314 316 317 316 316 318 318 318 318 318 317 318 319 319 319 320 319 318 318 318 317 317 317 317 317 317 317 317 317 316 316 316 316 316 316 317 316 316 316 316 316 317 317 316 316 317 316 317 317 317 317 318 319
303 304 305 305 306 307 306 307 307 308 308 307 307 307 308 308 307 309 311 310 310 310 311 310 311 312 311 311 315 316 312 311 314 317 318 317 317 316 317 319 320 319 318 318 318 318 318 318 318 319 319 318 318 317 317 317 317 316 316 316 316 316 317 316 316 316 316 316 316 317 316 316 316 316 316 316 316 316 317 317 317 317 318 318 317 317 318
303 304 305 305 306 307 307 307 308 308 308 307 307 307 307 307 307 309 310 310 310 312 314 312 311 313 314 314 314 313 311 311 315 318 318 317 317 318 319 320 318 317 318 318 318 318 317 317 317 318 318 318 318 317 317 317 316 316 316 316 316 316 316 316 316 316 316 316 316 316 316 316 316 316 315 316 316 316 317 317 317 317 318 318 317 317 318
304 304 305 306 306 307 307 307 307 307 307 307 307 307 307 308 308 309 310 310 311 313 313 311 312 315 316 312 310 310 312 315 317 318 318 317 317 318 319 318 317 317 317 318 318 318 317 317 317 317 317 318 318 317 317 316 316 316 316 316 315 315 315 315 315 316 316 316 316 316 315 315 315 314 314 315 315 316 316 316 316 316 317 317 317 317 317
Wind_Speed
24 24 24 25 26 26 24 23 23 24 28 30 29 28 23 13 14 17 11 11 14 7 2 3 2 3 5 6 6 6 4 1 2 2 1 1 2 2 3 3 4 4 5 5 4 4 4 5 5 4 3 4 6 3 8 9 5 1 2 5 6 5 4 4 5 5 7 9 5 2 1 5 7 7 7 8 7 8 7 5 5 4 3 3 2 3 7
25 24 24 24 25 26 26 24 23 22 24 27 28 25 20 18 22 16 5 3 5 3 2 4 3 3 6 6 7 8 6 4 4 4 2 3 2 1 2 3 3 4 3 4 4 4 3 4 4 3 2 3 4 4 10 10 3 2 5 5 6 5 3 4 4 3 6 8 6 4 2 3 4 4 5 8 8 8 4 3 4 5 6 7 5 5 7
24 24 24 24 24 26 26 24 24 22 20 23 23 19 16 15 14 9 6 5 4 5 1 1 1 3 3 3 4 5 5 5 8 8 4 5 5 3 4 5 5 4 3 5 6 5 4 3 4 3 4 4 4 4 9 10 4 9 15 13 10 6 5 6 6 5 7 7 7 7 5 3 3 2 6 7 9 11 6 3 4 6 5 6 6 5 7
24 24 23 23 24 25 24 24 25 22 18 20 20 15 11 7 4 6 8 6 3 3 3 5 2 3 3 3 3 3 3 5 9 8 5 7 8 5 5 6 5 5 6 7 9 8 7 6 5 5 4 3 3 3 10 14 13 16 23 21 11 3 3 8 9 10 9 8 8 7 4 5 4 5 7 8 9 12 9 5 6 6 4 4 6 7 6
24 23 22 22 23 23 23 24 26 22 17 17 16 11 6 2 1 3 5 6 4 2 4 7 4 2 3 3 2 2 3 3 4 5 5 5 5 4 5 6 5 6 6 6 7 8 8 8 7 8 7 4 4 8 12 14 16 17 18 19 10 2 5 8 10 13 14 12 11 8 5 7 8 8 9 9 9 11 10 7 7 7 7 6 9 6 8
23 22 21 21 21 21 21 23 26 23 17 13 11 7 4 3 3 5 5 4 2 2 5 8 5 4 3 2 3 4 5 4 3 3 3 4 2 2 3 5 8 8 8 5 5 6 6 8 9 8 7 4 3 7 9 8 10 8 6 10 8 4 6 8 9 13 15 15 14 10 7 6 6 8 10 10 11 13 12 12 10 9 8 9 8 9 10
20 19 19 19 18 19 20 22 24 22 16 12 8 5 4 4 5 7 6 4 5 8 11 11 7 5 4 3 3 3 5 4 3 2 3 5 4 4 3 6 6 6 7 5 6 7 6 7 9 7 6 3 1 2 6 6 3 3 5 4 4 5 6 7 10 13 14 16 16 12 11 9 8 8 9 9 11 13 14 14 12 12 12 11 9 13 14
19 18 19 18 18 19 19 19 22 21 16 13 8 2 3 5 4 7 8 6 9 12 11 7 5 4 4 4 2 3 3 2 4 4 3 3 3 2 4 7 7 6 5 5 9 12 11 10 10 7 7 4 2 2 4 4 3 7 5 3 0 3 6 4 7 9 12 14 16 14 13 13 13 14 11 8 7 8 10 10 8 9 11 9 6 9 11
20 20 20 19 19 19 19 18 19 18 16 15 10 3 4 6 6 7 7 6 7 8 7 4 3 3 3 2 2 4 3 3 6 7 8 10 8 5 4 6 7 6 6 7 11 12 9 10 11 6 6 6 5 6 3 2 7 10 6 3 2 2 4 1 4 4 7 9 13 16 15 13 14 17 16 12 8 6 6 5 6 8 8 5 5 6 9
21 20 20 20 19 19 18 17 17 16 14 13 11 7 7 8 6 6 6 5 4 5 4 3 2 3 2 2 3 4 5 7 7 6 7 11 13 11 6 5 6 6 7 7 8 12 13 14 15 11 10 10 4 5 2 3 4 5 4 5 3 2 2 2 3 4 7 8 10 12 10 9 10 12 15 14 11 8 5 4 6 7 6 6 6 8 9
22 21 21 21 20 18 17 16 15 15 14 13 11 10 9 8 7 6 5 4 4 3 3 2 2 2 4 6 7 6 8 9 6 4 3 6 11 14 13 9 6 6 6 7 14 23 24 22 18 13 12 12 9 4 2 4 7 7 5 5 4 2 3 4 3 4 9 9 5 3 4 7 8 8 9 13 13 13 9 4 4 4 3 4 6 7 6
22 22 22 21 20 18 17 16 14 13 13 14 12 11 11 9 7 7 6 5 4 3 2 3 4 4 8 10 9 9 10 11 11 10 9 11 17 22 18 10 5 5 8 17 27 28 21 15 10 6 4 4 3 4 3 4 9 11 8 5 5 6 6 5 2 3 4 1 4 3 6 9 7 3 2 7 10 12 8 5 2 1 2 4 7 7 7
22 22 22 21 20 18 17 16 15 13 12 13 13 12 12 11 7 7 7 6 4 5 5 6 9 11 13 11 8 10 13 15 18 18 14 13 16 19 17 9 6 9 18 27 28 19 9 6 4 2 1 2 4 5 6 6 9 12 10 6 5 6 5 3 2 2 1 2 4 6 8 6 1 3 4 3 4 9 10 6 1 2 2 4 6 7 6
23 22 22 21 20 19 17 16 15 13 12 13 14 13 12 11 8 7 8 6 4 6 8 6 7 9 9 7 7 9 12 14 15 14 12 11 12 16 17 13 12 18 23 22 16 7 1 2 3 2 1 2 1 3 6 7 7 7 10 7 3 4 3 3 3 2 2 3 3 3 3 1 0 2 3 4 5 6 7 4 2 3 3 5 5 2 5
23 22 21 21 20 18 18 16 15 14 13 13 14 14 12 11 9 8 10 8 6 8 9 8 6 4 4 5 7 7 7 7 7 10 12 12 12 13 15 17 21 22 17 9 3 1 1 1 1 3 2 3 4 3 2 4 4 4 6 5 1 5 3 2 4 2 2 4 2 1 2 4 4 3 1 4 3 4 6 5 1 3 5 4 3 4 5
22 21 20 20 20 18 18 17 16 15 14 13 15 15 12 11 9 9 12 12 8 6 6 7 6 7 8 10 11 9 5 4 4 7 8 6 8 14 20 25 22 14 7 3 1 2 1 1 2 3 3 3 4 2 2 0 3 4 4 5 3 1 2 3 1 1 2 5 3 3 4 5 5 6 4 2 2 3 5 6 2 4 8 7 0 7 8
21 20 19 19 19 18 18 17 17 16 15 14 15 15 13 10 9 10 13 14 11 10 14 15 16 15 9 7 9 6 4 5 6 4 4 5 9 16 25 28 18 7 4 2 0 2 1 2 2 0 3 3 3 4 4 3 1 3 5 6 6 4 2 3 2 3 1 3 3 2 3 2 2 4 5 7 7 2 5 5 1 5 11 10 3 8 11
20 19 19 19 18 17 17 18 16 16 16 14 14 15 13 11 9 10 14 14 10 10 17 19 18 17 11 6 7 6 4 7 7 3 5 8 6 11 23 23 11 6 7 4 2 1 2 3 2 2 2 3 0 4 5 6 5 3 1 2 3 3 3 2 1 2 3 1 3 1 3 2 2 6 9 11 7 1 6 6 3 6 11 8 10 13 15
19 18 18 18 17 16 16 17 16 15 15 13 13 15 13 11 10 10 13 16 12 13 18 17 14 16 15 11 12 12 10 10 9 5 4 4 5 18 24 13 3 6 8 3 3 0 2 1 1 1 2 1 1 1 3 5 5 3 3 1 2 1 2 3 1 1 3 1 2 1 2 1 6 13 14 9 4 3 3 3 2 7 9 11 19 23 23
19 18 17 17 16 15 15 15 15 14 14 13 13 15 14 11 10 11 13 16 16 19 25 25 23 25 25 21 22 21 16 13 11 5 3 5 11 22 16 3 2 8 6 2 2 1 1 0 2 1 1 1 1 1 0 2 2 3 6 3 1 2 2 2 2 2 2 2 3 2 2 4 16 18 10 5 4 9 11 8 8 12 15 18 24 29 30
19 18 16 16 15 14 14 14 14 13 14 13 13 15 15 11 9 10 13 16 17 17 18 16 15 18 20 21 22 21 17 15 14 10 10 14 15 10 3 3 7 6 2 3 3 1 1 0 1 0 1 1 1 1 1 2 1 1 4 5 2 2 2 1 1 2 2 3 2 1 3 10 19 11 3 7 11 20 23 16 10 11 17 21 24 27 29
18 17 16 15 15 14 13 14 13 12 13 13 13 14 14 11 8 8 12 17 20 22 23 22 23 26 26 24 24 24 25 28 28 26 23 22 17 12 11 13 12 7 4 4 2 2 2 2 0 2 1 1 1 2 1 4 3 2 1 4 2 2 4 5 3 0 1 3 1 2 5 12 15 11 16 18 20 23 23 21 17 17 21 25 27 27 27
17 16 15 14 14 14 13 13 12 12 13 13 14 14 14 12 10 9 12 17 21 27 33 34 34 35 35 30 25 23 24 25 26 28 28 23 17 15 16 16 12 9 5 4 1 3 2 1 0 2 0 1 1 2 2 1 1 1 2 2 1 2 4 5 5 3 2 2 4 5 7 11 13 15 19 21 21 19 20 24 24 22 24 26 27 28 29
16 16 14 13 13 13 13 13 13 13 12 12 13 14 14 13 11 10 12 14 15 19 23 25 26 27 25 22 18 17 18 18 18 19 21 22 17 11 11 11 8 6 6 7 6 5 2 1 1 1 0 1 1 1 2 1 1 1 2 1 1 3 3 1 4 7 5 2 4 4 4 7 9 13 17 19 21 21 22 24 23 23 24 24 22 23 25
15 15 14 12 12 12 13 13 13 13 12 12 13 13 13 13 12 11 11 10 10 11 10 13 21 22 17 18 19 17 17 17 16 14 15 21 24 19 13 8 4 6 11 12 10 6 2 2 1 1 1 1 2 1 2 1 2 2 2 3 1 1 2 1 2 4 4 4 6 6 9 9 8 11 15 18 21 22 23 25 25 26 27 26 23 21 21
15 14 13 11 11 12 12 12 12 12 11 12 13 13 14 14 13 12 12 11 12 12 8 10 19 21 19 21 21 17 15 15 15 17 18 20 23 22 19 16 12 12 13 15 13 8 4 2 1 0 1 1 3 1 3 2 3 2 3 5 6 4 1 1 3 3 6 7 10 11 14 11 7 10 15 18 22 25 25 25 25 25 26 25 25 23 22
13 12 11 11 10 11 11 11 11 11 11 12 13 13 14 15 14 13 14 11 10 9 6 7 17 26 30 27 19 11 11 13 14 16 18 18 18 18 19 20 19 17 16 15 13 8 4 2 1 2 3 1 2 1 3 4 3 2 2 6 10 5 1 2 5 7 6 6 9 10 10 7 5 11 20 23 24 26 26 26 26 25 23 22 23 24 23
11 10 10 10 9 9 10 10 10 11 11 12 13 14 15 16 15 15 14 13 12 10 10 14 24 31 30 22 11 5 6 10 12 13 15 16 15 15 16 17 18 19 17 13 8 4 1 1 3 4 3 2 1 1 2 3 3 3 2 8 10 6 4 1 3 5 4 5 7 6 10 10 10 17 25 26 25 24 25 25 23 22 20 18 19 21 22
10 9 9 9 9 8 8 9 9 10 10 11 12 14 15 15 14 12 11 12 13 16 18 20 22 19 17 16 12 7 6 9 11 13 14 15 15 15 16 16 16 17 16 12 7 4 2 4 6 3 3 5 4 2 1 2 2 3 5 11 13 10 9 7 4 3 2 8 9 11 17 17 17 22 28 27 23 23 22 18 14 13 14 14 15 17 18
9 9 8 8 8 8 8 8 9 10 10 10 11 12 12 8 5 8 10 10 7 10 13 12 10 12 18 22 16 7 4 7 11 13 14 15 15 15 15 15 15 15 14 12 9 4 3 5 7 5 4 6 4 3 1 1 2 2 9 17 18 17 18 15 9 7 8 13 15 20 25 24 21 23 24 20 16 15 16 15 13 12 13 13 15 16 16
8 8 8 7 7 8 8 9 9 9 10 10 9 8 6 2 4 10 13 9 2 6 10 9 10 15 20 20 14 7 5 6 10 13 12 12 12 13 13 14 14 13 12 11 9 6 5 5 4 4 4 2 3 4 2 1 2 3 12 20 19 19 19 18 17 19 18 18 21 26 27 25 25 24 22 21 19 18 19 21 20 18 16 16 16 16 14
7 7 7 7 8 8 8 8 9 10 10 11 11 11 10 4 4 12 13 7 5 11 10 7 8 8 8 10 14 12 6 5 7 9 10 10 10 11 12 13 12 11 10 8 6 5 4 4 3 4 6 5 3 3 3 3 2 3 10 15 15 17 17 15 15 17 15 15 20 24 23 25 29 28 24 25 26 24 24 24 21 19 18 17 16 15 14
6 7 7 7 7 8 8 8 9 10 11 12 13 13 13 8 5 10 9 8 11 13 9 5 4 3 4 12 17 10 4 7 6 7 8 8 10 10 10 12 12 9 7 6 3 3 4 3 1 3 9 11 6 2 3 4 5 8 11 13 14 19 19 14 13 14 12 13 18 19 19 22 28 27 25 25 25 22 21 19 17 16 16 16 15 14 14
6 7 7 7 8 8 8 9 11 11 12 13 11 7 6 5 4 5 6 10 11 9 5 4 3 2 5 11 11 4 2 3 6 8 6 7 10 9 7 9 8 5 5 6 4 3 3 2 3 4 7 9 8 4 3 5 9 14 16 13 15 22 24 21 20 21 20 21 23 24 22 22 23 23 22 22 20 17 16 16 16 15 15 15 14 13 13
6 6 7 8 8 9 9 9 10 9 8 7 4 1 2 4 3 1 0 5 6 4 3 4 4 2 4 6 4 4 7 4 6 10 7 7 11 11 7 6 4 3 5 5 2 1 1 2 5 4 3 5 6 4 2 5 8 14 16 13 11 15 21 22 20 18 19 21 23 23 21 19 20 20 19 18 16 14 14 15 16 15 15 14 13 12 13
6 7 7 7 7 7 7 5 4 4 4 3 2 1 2 4 4 2 3 5 6 4 3 4 3 2 2 3 4 7 12 8 3 8 7 7 8 9 7 5 2 2 3 3 1 2 3 5 5 3 3 4 3 2 2 5 8 11 14 13 10 10 16 19 17 15 15 17 19 19 17 16 17 17 15 14 14 14 13 13 14 14 14 13 12 12 11
5 5 5 6 6 5 3 2 3 3 4 2 1 2 3 5 5 5 7 8 8 8 7 4 3 4 4 3 4 9 10 5 1 3 5 5 5 6 6 3 2 2 3 4 2 3 8 11 8 4 4 4 3 3 7 10 11 12 14 15 14 12 13 12 11 10 11 15 19 18 15 15 15 14 13 13 13 13 13 13 13 13 13 12 11 11 11
4 4 5 6 6 3 2 2 3 4 3 2 2 3 3 4 4 4 5 6 5 7 9 6 5 7 6 6 7 11 9 4 2 2 3 5 3 3 4 2 2 3 3 3 2 4 7 7 4 4 5 5 6 9 11 12 12 13 14 14 15 15 13 11 8 7 8 14 17 16 15 15 14 13 13 12 11 11 11 11 11 11 10 10 11 11 12
5 5 6 6 5 3 2 4 4 3 3 3 3 2 2 2 1 1 3 4 3 4 7 6 6 8 7 5 7 11 8 3 2 3 1 4 2 1 2 2 2 3 2 2 2 3 5 3 2 4 4 2 5 9 11 11 11 12 12 12 12 12 13 14 15 14 14 15 14 13 14 14 12 11 11 10 9 10 9 9 10 11 11 11 12 12 13
6 6 6 6 6 4 3 4 3 3 2 2 2 1 1 2 2 2 2 2 1 4 6 5 5 6 7 6 6 5 4 4 4 3 1 1 1 1 1 1 2 3 3 2 2 3 4 3 2 3 2 2 4 8 11 12 13 12 11 10 11 11 11 12 14 14 14 13 12 11 11 11 9 9 9 8 8 9 9 10 11 11 11 12 12 13 14
7 7 8 8 7 5 3 3 2 2 1 1 1 1 1 2 3 2 2 1 2 3 4 2 3 3 5 8 9 7 6 7 7 5 2 1 3 3 2 1 2 3 3 1 3 3 3 3 3 2 2 3 6 10 12 13 14 14 13 12 11 10 10 11 12 12 12 11 11 10 9 9 8 8 8 8 8 9 10 11 11 11 12 13 13 14 14
8 8 8 8 7 5 4 2 2 1 0 1 0 1 1 1 2 2 2 2 2 1 1 1 4 5 5 7 9 9 7 9 6 3 0 3 4 4 2 1 2 3 3 1 2 2 2 3 3 2 3 7 10 11 12 13 14 15 15 15 14 13 11 11 12 13 13 12 11 11 11 11 10 10 9 9 9 9 10 11 12 13 14 14 15 14 14
9 8 8 7 6 5 4 3 2 1 1 1 1 2 1 2 2 1 1 2 5 4 1 2 6 9 8 6 7 9 7 7 7 3 1 1 2 2 3 2 2 2 3 2 1 2 3 4 3 3 5 10 12 11 11 13 14 14 16 16 16 15 14 13 13 13 13 13 13 13 13 12 11 11 10 9 8 9 10 11 12 13 14 15 15 15 15
9 6 5 4 4 4 3 2 2 2 2 1 2 2 2 3 3 2 2 4 6 5 5 6 8 6 3 2 4 5 4 5 6 5 2 2 3 3 3 1 0 1 2 3 2 2 3 3 2 3 7 11 11 11 12 12 13 14 16 17 16 15 14 13 12 12 13 13 13 12 11 11 11 11 10 10 9 9 10 10 11 13 15 15 15 16 16
8 7 5 3 3 4 3 2 2 3 2 1 1 1 1 1 2 2 3 6 7 7 10 11 9 6 3 2 4 5 4 5 6 4 1 1 3 3 1 1 0 1 2 3 2 3 3 2 2 4 7 10 11 11 12 13 13 14 15 16 16 15 14 13 12 13 13 12 12 11 11 10 10 10 11 11 10 10 10 11 12 14 14 15 16 16 17
8 7 5 2 2 4 3 1 1 1 0 1 3 2 3 3 4 3 5 8 10 12 13 12 10 9 5 3 4 5 6 5 4 2 1 2 3 2 1 1 1 2 2 3 3 3 3 2 0 3 7 10 11 11 12 13 14 14 15 15 15 14 14 13 12 12 12 11 11 10 11 11 10 10 10 10 10 9 9 11 13 13 12 13 14 15 15
6 6 4 2 2 4 3 1 2 3 4 5 7 7 6 7 8 8 7 8 10 11 12 10 9 8 2 5 4 3 5 2 2 2 2 2 3 1 1 1 2 2 2 3 3 2 2 2 3 5 9 11 11 12 13 13 13 13 14 14 14 13 13 13 13 12 12 11 11 10 11 11 11 11 11 10 9 9 9 9 11 11 10 10 11 12 11
6 5 4 2 1 1 2 3 6 7 6 6 7 8 9 10 10 11 13 11 8 7 8 7 5 2 1 4 4 1 2 2 3 3 3 2 2 1 2 2 2 2 3 3 2 2 2 4 6 9 9 10 11 12 13 13 13 13 13 13 12 13 13 13 12 12 12 12 11 11 11 11 11 11 12 11 10 10 9 9 9 9 9 8 9 9 8
7 5 4 2 1 1 3 6 7 6 9 11 11 13 16 15 14 16 18 14 8 4 4 4 3 2 2 2 2 2 2 3 2 1 3 3 3 2 2 2 2 3 3 1 1 3 6 8 9 9 9 10 12 13 13 13 13 13 13 13 12 12 12 12 12 11 11 11 11 11 11 11 11 11 11 11 11 11 11 10 9 9 9 8 8 8 8
7 5 5 4 2 4 8 6 3 4 11 16 17 18 20 20 21 22 20 13 7 5 5 6 5 3 2 2 3 3 2 2 1 1 3 4 2 1 2 3 3 2 1 1 3 7 9 9 9 9 10 11 12 12 12 12 13 13 14 14 13 12 10 10 9 9 9 9 10 10 10 10 11 11 11 11 11 10 10 9 9 9 9 9 9 8 8
5 4 5 6 6 7 9 7 2 2 6 11 15 18 19 19 21 22 19 13 9 7 4 3 3 3 3 4 3 1 1 2 2 2 2 2 1 1 3 3 1 1 1 4 7 9 9 9 9 9 10 10 11 11 11 11 11 11 12 13 13 12 10 7 6 6 7 7 8 8 8 8 9 9 10 10 9 8 8 8 9 10 10 10 10 9 9
5 4 5 8 12 14 12 7 4 5 8 12 15 17 18 19 21 21 18 15 12 8 3 2 3 3 3 2 1 1 1 3 3 2 2 2 2 2 2 2 1 1 3 6 7 8 8 8 8 8 8 8 9 9 9 9 9 9 10 11 12 12 9 7 5 4 4 5 6 7 7 7 7 8 8 8 8 7 8 9 9 9 9 10 10 9 9
Wind_Direction
315 317 320 323 325 326 328 328 329 333 333 335 340 343 344 331 304 312 316 284 289 305 294 279 256 224 267 288 291 296 300 282 276 294 300 255 236 225 220 207 208 227 228 215 215 222 228 225 212 208 240 226 208 262 325 317 304 277 221 234 206 171 156 184 217 251 253 257 274 310 222 169 184 211 193 178 189 189 189 190 177 187 190 144 141 241 264
313 315 318 319 322 325 327 328 329 334 339 340 341 342 338 321 308 312 347 330 280 210 215 272 244 253 279 282 289 287 275 268 274 264 230 217 224 243 245 225 214 225 231 236 234 231 242 248 241 234 239 226 211 268 295 291 276 215 228 212 188 198 206 184 189 220 236 255 280 282 251 171 193 217 186 185 186 173 158 107 144 213 211 172 178 228 249
310 313 316 316 319 323 325 328 329 332 339 340 339 336 332 325 309 301 333 339 242 200 163 351 254 301 305 283 287 281 270 267 261 251 228 223 228 232 249 241 233 243 264 272 262 240 219 245 282 257 223 250 254 260 288 289 249 230 240 224 192 195 209 189 188 202 206 215 233 235 215 190 224 203 172 183 172 162 160 117 160 224 225 175 180 212 247
308 311 313 314 317 320 323 326 326 329 337 339 337 334 329 327 304 302 325 332 261 218 55 53 20 342 345 311 274 241 252 273 266 254 233 235 233 229 245 238 234 250 252 260 269 256 231 231 259 258 244 263 252 270 303 293 266 258 255 238 209 171 204 190 188 204 208 206 218 222 179 168 209 207 184 183 175 172 168 146 175 198 172 184 212 198 218
306 307 308 310 313 316 321 325 324 325 335 341 335 328 318 289 267 335 332 327 328 355 45 44 25 331 333 312 275 269 272 281 276 243 225 246 241 229 238 219 212 230 224 233 254 245 237 235 244 258 255 250 277 300 306 286 270 278 264 235 207 149 223 203 190 209 214 209 212 209 184 191 202 200 196 192 182 173 172 188 199 161 144 227 249 198 196
302 305 307 309 311 313 317 323 323 323 333 346 338 318 282 248 300 352 347 309 315 359 348 350 335 292 301 276 262 296 281 267 282 256 275 313 270 219 256 232 222 227 225 235 246 231 233 239 239 245 243 241 305 310 307 282 269 300 285 227 191 158 233 218 197 218 223 219 219 202 188 216 211 195 199 200 191 180 185 206 199 156 172 230 226 180 197
305 308 313 313 312 313 317 323 324 324 333 347 343 307 281 276 291 326 340 309 293 303 306 310 301 286 297 270 245 282 271 264 304 311 321 322 260 220 257 258 247 245 243 251 250 234 222 227 234 227 221 226 77 333 307 289 264 10 356 268 188 165 237 226 201 222 230 226 226 208 197 222 233 219 207 198 198 194 198 211 197 180 207 225 191 184 209
309 312 315 315 314 314 317 322 324 327 332 338 338 305 313 328 306 314 332 315 289 292 291 290 294 295 289 262 262 316 290 282 342 323 274 274 274 209 218 260 281 283 265 248 243 240 225 222 233 209 196 217 152 164 268 274 320 350 346 307 258 191 234 213 178 218 236 229 228 221 210 216 229 237 230 202 194 200 214 228 205 189 220 230 177 185 226
308 308 310 311 312 312 314 319 323 327 329 331 337 340 318 321 300 289 307 302 283 287 289 288 296 286 263 244 323 344 321 323 340 310 242 228 240 229 231 285 305 301 281 253 245 249 235 234 250 232 211 234 189 168 207 321 333 328 326 327 331 226 247 308 132 201 242 229 224 226 221 219 231 240 238 224 207 196 211 219 190 189 212 204 149 182 236
300 301 303 305 307 308 309 313 318 321 321 323 330 332 324 324 316 290 285 284 283 295 301 295 273 265 278 7 354 320 298 312 326 305 260 243 240 242 265 313 319 303 286 265 277 304 301 283 282 283 280 291 275 182 206 307 293 291 304 309 293 173 233 288 164 205 253 237 216 218 218 222 238 239 231 228 220 207 213 208 188 188 176 164 184 217 236
294 296 298 299 301 303 304 304 308 311 311 312 316 322 325 326 322 310 290 267 268 287 299 290 271 293 347 355 345 315 300 309 306 275 294 290 270 277 295 305 297 278 268 291 320 322 309 293 288 282 275 291 303 292 301 298 271 260 264 282 294 308 282 262 185 198 251 245 208 178 192 211 236 242 222 220 218 213 214 206 194 201 175 190 226 246 259
290 292 294 295 296 297 297 297 297 298 299 300 302 310 317 316 310 299 281 267 279 291 294 276 265 296 318 317 314 302 291 293 290 276 274 283 284 288 292 286 256 252 292 315 322 323 312 289 279 275 256 263 312 341 352 308 286 281 265 244 272 290 281 265 204 186 246 246 110 155 226 228 245 293 234 212 209 195 169 118 104 237 283 267 258 261 264
289 290 292 293 292 291 292 290 287 286 286 287 290 296 306 310 302 279 273 277 275 273 279 275 269 277 286 286 288 291 287 287 290 285 271 267 278 285 283 269 250 283 310 317 318 321 318 290 268 216 171 48 29 351 320 309 306 297 280 246 230 249 255 240 194 199 246 95 134 203 236 242 258 38 53 81 131 139 126 99 49 256 253 240 239 257 271
290 289 289 290 289 287 286 284 281 278 277 278 281 286 295 301 291 266 271 274 263 277 289 287 280 278 275 276 291 299 299 298 297 292 278 267 271 278 281 284 296 307 314 317 316 310 267 320 316 222 172 57 8 299 311 320 311 278 269 271 221 189 225 253 240 223 170 156 188 224 239 251 65 68 73 81 102 138 142 138 224 257 263 231 211 293 332
288 288 287 287 287 284 282 281 276 271 268 270 274 276 284 295 288 261 261 266 271 287 277 250 250 299 324 316 316 316 311 307 308 307 296 280 272 276 289 306 316 317 315 310 304 268 174 125 265 227 185 169 206 223 352 329 299 248 251 282 238 163 169 217 233 236 113 117 120 136 182 213 232 245 203 110 115 186 159 121 121 307 316 270 174 86 41
286 287 285 284 284 281 279 278 274 267 262 261 267 272 278 288 284 261 258 265 267 271 255 232 256 311 320 305 301 299 288 289 316 312 301 298 301 302 311 321 324 326 322 284 173 91 96 154 177 228 220 183 179 148 101 287 315 312 297 325 5 120 131 111 144 264 121 131 149 183 192 205 236 266 278 48 56 201 142 92 22 325 339 323 193 97 83
285 284 281 280 281 280 276 275 273 269 262 255 260 269 273 277 278 263 260 267 264 258 262 268 283 298 302 292 294 289 267 293 316 309 294 317 319 315 323 329 334 355 12 339 47 59 124 171 126 184 249 237 160 141 144 152 175 293 302 336 358 352 358 43 29 322 279 142 146 197 208 210 264 284 305 338 335 260 145 127 233 318 342 338 32 97 103
284 281 280 279 278 277 274 271 270 270 266 257 255 263 269 274 276 263 260 269 275 270 270 273 278 280 269 260 284 287 294 310 311 308 302 294 293 323 325 323 326 358 6 20 72 34 219 200 170 162 219 291 148 151 159 161 172 203 250 335 341 348 358 17 41 319 315 78 123 192 242 237 285 308 317 328 340 75 150 177 223 339 353 13 62 76 91
283 280 280 278 275 275 273 269 268 269 268 260 255 261 269 273 272 262 256 260 260 262 268 270 269 269 267 270 279 278 287 296 288 292 307 272 322 338 326 305 288 345 345 32 84 113 197 218 302 142 156 306 318 186 160 155 165 159 129 125 320 12 14 344 5 348 333 31 112 293 235 204 345 334 328 338 25 117 161 186 105 58 50 66 71 69 73
284 281 279 277 274 273 271 269 268 267 267 264 261 265 270 271 268 262 254 258 264 271 274 271 268 269 271 272 272 274 280 283 271 265 259 261 323 340 335 291 11 341 327 39 48 20 144 250 308 22 89 256 257 275 253 137 162 153 137 147 212 146 127 329 303 296 336 28 31 19 197 308 335 333 328 2 79 145 142 120 105 98 89 81 75 73 71
285 280 276 274 272 269 268 268 267 265 267 266 265 270 273 269 263 256 252 258 271 280 279 270 263 266 267 264 265 265 263 260 255 258 275 285 304 330 333 300 328 327 330 20 350 305 51 332 248 80 9 304 298 277 241 137 200 212 136 133 148 149 147 170 233 298 17 56 20 337 250 309 330 341 87 95 111 133 129 116 112 103 86 76 73 72 69
285 281 277 273 271 269 267 265 264 263 265 265 263 266 271 270 264 259 259 262 265 266 267 267 270 273 270 263 260 259 260 264 267 267 269 277 282 269 261 289 304 285 292 360 354 276 344 341 282 54 36 296 348 316 252 147 166 229 123 129 162 200 183 150 122 355 191 142 167 299 321 335 356 54 102 110 117 121 111 99 97 89 78 74 73 71 68
286 283 281 275 271 270 267 265 266 264 264 266 264 263 269 274 271 267 270 272 271 272 274 276 278 279 277 273 270 270 270 270 269 264 256 255 267 269 260 265 273 272 295 8 11 287 326 356 88 54 125 213 24 338 311 117 168 215 141 134 117 116 130 117 109 147 179 71 29 4 0 2 25 70 98 108 110 104 93 90 89 85 79 75 71 69 67
289 285 282 277 272 270 267 266 266 262 260 263 264 264 270 274 274 276 277 279 284 286 285 281 275 272 278 285 286 282 276 265 260 262 250 236 238 257 259 251 257 286 323 345 328 305 314 305 286 74 88 290 67 36 311 338 325 288 109 68 37 99 102 83 140 155 150 73 344 339 10 17 36 72 91 95 94 90 86 85 85 83 80 75 69 65 61
292 286 282 278 275 274 271 267 266 268 270 269 267 269 272 271 273 278 276 278 291 297 298 289 279 276 287 298 290 278 275 270 260 258 251 235 230 235 242 241 257 310 319 322 321 316 312 298 291 104 23 342 80 7 290 276 296 303 87 75 29 141 101 52 155 146 117 147 188 154 98 70 50 72 86 87 88 87 82 81 83 80 74 70 67 64 58
288 283 281 280 277 277 276 270 269 271 271 269 269 274 277 276 275 274 273 281 289 281 270 277 284 290 302 303 293 281 274 269 257 250 250 246 241 242 246 250 265 290 302 306 307 295 258 257 307 98 266 218 112 69 281 272 304 309 98 56 352 310 286 105 154 139 95 124 175 155 111 84 60 81 88 87 89 88 83 81 79 74 70 67 64 60 58
286 281 283 283 282 281 277 274 273 272 269 271 274 276 276 275 271 271 273 275 275 270 261 271 288 299 306 304 298 287 266 253 246 244 244 244 242 240 240 246 258 274 287 298 300 285 240 234 236 202 221 216 107 107 247 264 323 26 79 18 4 348 306 97 136 152 133 150 198 184 130 114 125 106 94 90 90 86 80 76 71 68 69 69 67 66 63
288 284 285 283 283 280 274 273 277 277 277 279 278 276 276 274 273 274 269 255 249 259 276 287 292 301 307 306 300 290 261 240 230 230 235 238 239 235 233 241 252 261 270 282 288 272 235 255 227 188 176 189 148 110 277 294 13 61 11 355 4 352 310 331 139 162 153 163 192 162 113 117 132 115 101 97 96 89 78 69 62 59 59 59 63 67 64
287 286 284 282 283 280 276 278 280 278 279 281 281 285 286 279 271 264 248 231 238 255 269 283 289 291 297 303 299 285 258 237 230 231 232 232 233 233 235 242 247 249 255 264 266 259 258 261 261 255 199 190 174 113 326 318 54 62 356 357 8 8 3 6 341 308 105 135 147 125 109 113 116 109 102 100 100 98 90 75 59 55 56 53 57 64 64
284 282 281 282 283 283 283 284 284 284 284 287 293 300 299 287 246 215 205 196 214 257 273 284 291 289 295 302 302 285 238 231 233 237 237 231 230 232 234 239 244 246 250 255 257 265 286 271 275 285 239 205 169 113 139 172 99 47 1 9 24 35 39 39 28 27 74 106 113 107 105 106 105 100 95 92 94 96 92 82 74 74 73 67 64 65 63
285 281 281 283 284 288 290 287 286 285 281 283 290 291 293 328 143 179 191 183 185 310 303 287 281 291 297 299 299 296 282 248 232 234 236 229 226 229 230 233 240 242 241 244 251 267 281 268 276 315 306 231 140 101 101 102 98 22 2 12 32 50 53 55 70 83 88 91 95 96 94 94 96 94 85 82 85 87 87 86 82 77 73 67 61 58 55
289 282 287 293 294 295 294 287 287 287 280 282 282 268 265 286 157 179 191 203 287 308 306 289 284 293 291 300 313 313 284 228 215 222 225 218 214 217 219 224 235 242 241 243 250 265 270 252 257 340 11 40 81 81 60 57 67 27 14 18 43 71 72 60 68 84 86 78 82 86 83 83 89 91 87 85 86 84 83 83 78 73 70 63 55 50 45
299 297 300 303 298 298 293 284 286 288 284 284 281 265 259 262 209 194 213 256 286 295 292 279 298 298 266 302 321 323 212 188 190 197 206 210 208 207 211 220 229 239 239 234 238 272 288 291 295 39 48 50 50 67 66 33 16 39 44 40 56 80 87 75 61 67 72 72 81 87 86 86 91 93 94 92 87 80 77 74 65 58 53 44 38 35 30
308 305 304 302 298 299 298 292 291 291 287 287 287 270 249 244 218 204 231 251 265 279 276 254 271 300 287 301 320 349 134 182 187 184 192 202 199 197 195 201 209 220 222 222 238 279 291 335 38 52 42 30 27 48 62 18 23 46 58 64 75 86 88 82 71 70 77 87 94 97 97 98 96 91 88 87 81 75 71 63 51 45 40 33 29 23 13
311 307 306 307 307 306 304 298 292 291 294 299 304 267 221 250 268 36 73 251 254 262 263 251 250 278 314 310 309 350 359 347 202 194 187 178 188 192 174 154 169 214 209 200 212 316 325 46 53 46 19 17 31 43 2 346 23 52 62 68 80 92 93 90 86 86 91 97 100 99 98 98 91 82 77 75 67 56 50 44 38 34 31 28 21 10 1
317 317 316 318 318 315 314 315 306 307 332 355 13 123 208 257 276 297 287 276 265 250 273 302 290 276 334 330 289 313 335 343 196 185 171 155 175 190 176 145 148 203 166 137 87 359 44 73 75 50 23 34 46 43 17 17 30 51 63 63 66 93 110 114 113 108 100 94 93 92 88 81 74 69 65 61 50 36 28 27 23 18 16 15 9 2 358
330 331 333 334 336 337 352 14 2 351 357 353 294 267 263 265 271 269 263 270 270 253 248 270 278 255 250 239 266 304 323 333 148 167 169 158 157 172 172 155 154 160 97 58 53 76 70 74 81 75 60 70 77 68 64 59 52 53 63 69 73 89 112 132 146 138 104 79 71 69 64 59 57 50 42 38 31 19 15 18 16 11 9 6 358 352 350
347 351 352 349 351 3 27 356 330 328 337 320 288 298 282 258 262 266 247 244 253 242 227 222 248 252 232 217 262 294 305 310 350 12 177 170 148 154 171 149 118 131 92 51 81 90 68 60 67 81 85 79 63 59 63 65 64 65 69 71 73 75 80 90 109 117 87 65 58 55 54 56 57 51 44 40 34 26 24 21 12 4 359 353 344 337 333
356 352 351 351 353 348 331 329 323 317 320 303 280 288 270 224 229 270 228 213 225 229 215 217 245 244 221 224 281 297 294 280 335 2 160 173 162 167 179 144 95 103 99 69 52 69 71 60 42 69 85 60 37 50 59 60 62 66 67 67 68 67 67 69 69 69 70 69 65 59 55 57 59 57 55 51 44 36 29 18 7 0 352 341 331 324 319
0 359 352 347 349 343 317 310 308 299 295 265 235 250 263 229 226 214 190 195 244 218 206 220 264 258 240 244 270 300 316 300 294 305 271 174 133 109 139 136 91 85 89 63 13 47 87 100 60 58 77 36 29 51 62 63 62 63 61 62 64 62 63 68 69 70 73 76 73 63 56 54 53 52 47 39 32 25 19 14 10 1 349 339 331 324 320
7 5 350 340 344 349 335 315 305 289 257 208 217 271 289 242 239 223 197 245 276 221 212 266 319 272 236 236 236 249 302 308 280 252 248 355 44 65 76 70 69 76 77 21 354 23 74 93 76 64 63 54 60 69 70 66 63 61 57 55 55 55 59 66 68 65 64 62 59 57 52 47 42 39 33 29 25 19 12 8 5 358 352 350 344 339 334
4 354 342 339 346 354 354 353 354 344 19 120 316 307 261 240 266 251 211 235 292 276 212 297 301 290 290 282 266 268 306 328 315 277 300 28 42 71 80 39 51 79 90 44 347 15 64 82 80 76 74 74 76 76 70 63 61 59 54 51 49 47 47 48 47 45 44 43 40 37 33 29 27 26 26 24 21 12 5 3 3 2 1 358 353 350 346
359 348 345 351 360 4 5 13 14 4 35 75 23 353 335 329 331 306 226 308 336 349 11 297 304 313 325 319 287 277 296 329 340 350 45 27 23 63 64 32 36 83 92 85 70 53 65 79 95 108 93 84 78 74 68 64 62 58 52 48 46 45 43 43 42 40 37 34 31 28 26 25 25 24 23 20 16 14 14 15 15 13 9 6 3 0 354
4 356 351 346 348 357 4 354 348 5 35 51 29 24 3 339 334 334 326 330 338 349 347 322 311 314 330 342 318 310 318 341 354 4 13 353 12 53 67 47 16 87 71 75 85 64 50 61 76 85 86 85 79 70 65 63 61 57 53 48 46 47 49 50 50 46 42 37 34 32 31 32 32 31 28 27 27 29 30 29 24 17 13 13 14 11 6
16 14 7 352 348 1 13 359 352 14 39 10 346 89 136 260 252 255 315 314 304 313 329 331 321 305 286 306 346 352 350 354 4 11 12 14 36 53 57 289 279 72 65 71 84 80 71 64 10 32 64 76 75 67 63 63 62 61 57 51 48 49 52 53 51 48 45 41 39 39 39 39 37 32 29 29 30 31 28 23 18 13 13 16 18 15 13
21 17 20 47 18 4 14 30 4 12 38 311 299 258 231 251 261 274 310 315 310 317 331 333 319 308 315 27 39 359 340 352 15 19 19 56 55 49 6 346 22 60 78 86 83 78 87 109 348 33 63 76 78 74 71 70 68 64 60 57 53 50 50 51 50 48 46 44 45 46 44 42 38 34 31 29 28 24 17 10 7 8 12 16 16 15 16
17 9 20 64 17 359 17 41 339 312 291 292 300 302 301 305 311 324 336 330 321 326 332 319 292 282 300 89 80 337 316 346 26 345 353 60 88 89 18 51 56 52 70 85 89 94 129 153 119 85 80 83 86 86 82 78 72 66 62 60 57 54 52 51 50 50 49 48 48 48 46 43 40 36 34 31 26 21 15 9 7 11 15 14 13 16 23
8 6 16 42 48 9 350 314 308 315 318 311 315 332 337 323 318 338 353 351 334 325 323 314 289 256 118 98 112 194 288 21 32 353 357 60 92 57 25 50 56 43 49 67 92 114 121 114 105 99 93 92 94 94 87 78 72 67 64 62 58 54 51 49 47 48 49 48 48 48 46 43 42 40 39 38 37 33 32 27 21 22 25 19 12 15 23
22 27 34 53 152 278 314 293 282 317 2 9 2 0 359 350 345 354 1 360 353 346 342 350 17 35 344 357 63 90 26 15 17 351 7 34 49 34 24 40 47 47 51 62 92 81 82 89 98 104 102 98 96 93 85 77 72 67 64 61 57 53 51 48 46 47 48 48 49 51 50 48 49 47 45 44 43 41 39 36 30 28 29 24 16 12 16
33 44 44 42 18 341 345 340 312 348 8 7 3 1 0 357 356 2 6 5 12 36 43 37 39 37 359 5 43 54 27 25 60 49 31 38 47 25 35 51 56 58 74 88 77 75 77 82 91 98 99 97 95 91 84 77 73 68 64 61 57 54 52 49 46 46 47 49 52 56 56 55 54 52 50 47 44 39 37 36 35 33 32 31 29 26 23
34 43 36 32 19 357 351 352 339 315 339 346 349 353 355 354 356 1 6 16 36 53 50 16 5 19 34 40 40 16 338 18 44 47 42 46 39 29 49 64 78 240 92 73 70 70 71 71 74 81 87 89 89 85 80 74 69 63 61 59 56 54 55 56 53 53 55 54 55 58 61 58 53 48 46 44 41 39 40 42 41 38 37 36 36 34 28
28 14 2 9 11 9 5 359 343 330 337 347 354 359 2 3 3 6 14 31 47 52 32 353 30 63 64 44 21 3 29 35 38 41 45 39 28 46 83 115 151 64 64 66 65 66 67 63 61 65 75 81 81 77 73 69 63 56 51 48 47 47 52 60 64 67 68 63 58 60 63 61 53 47 41 38 37 42 47 47 43 40 37 34 31 29 24